Nimes, France

1:46 PM CEST on April 23, 2018 (GMT +0200)
Garons Navy

Weather History for LFTW - March, 2014

Change the Weather History Date:

Saturday, March 29, 2014

  Actual Average Record
Temperature  
Mean Temperature 56 °F -  
Max Temperature 67 °F 63 °F 77 °F (2012)
Min Temperature 44 °F 46 °F 40 °F (2016)
Degree Days  
Heating Degree Days 10    
Growing Degree Days 6 (Base 50)    
Moisture  
Dew Point 41 °F    
Average Humidity 57    
Maximum Humidity 76    
Minimum Humidity 25    
Precipitation  
Precipitation 0.00 in - - ()
Sea Level Pressure  
Sea Level Pressure 30.02 in    
Wind  
Wind Speed 4 mph ()    
Max Wind Speed 9 mph    
Max Gust Speed -    
Visibility 7.0 miles    
Events      
Averages and records for this station are not official NWS values.
T = Trace of Precipitation, MM = Missing Value Source: Averaged Metar Reports

Daily Weather History Graph

Daily Weather History Graph

Search for Another Location

Airport or City:

Astronomy

Mar. 29, 2014 Rise Set
Actual Time 6:29 AM CET 7:05 PM CET
Civil Twilight 6:00 AM CET 7:34 PM CET
Nautical Twilight 5:26 AM CET 8:08 PM CET
Astronomical Twilight 4:51 AM CET 8:43 PM CET
Moon 5:31 AM CET (3/29) 5:50 PM CET (3/29)
Length of Visible Light 13h 33m
Length of Day
12h 35m
Waning Crescent, 2% of the Moon is Illuminated
Mar 29
Waning Crescent
Mar 30
New
Apr 7
First Quarter
Apr 15
Full
Apr 22
Last Quarter

Hourly Weather History & Observations

Time (CET) Temp. Windchill Dew Point Humidity Pressure Visibility Wind Dir Wind Speed Gust Speed Precip Events Conditions
12:00 AM 47 °F - 39 °F 66% 30.08 in 8 mi ESE 5.8 mph - -   Clear
12:00 AM 46.4 °F 43.5 °F 39.2 °F 76% 30.06 in 6.2 mi ESE 5.8 mph - N/A   Unknown
12:30 AM 48.2 °F - 41.0 °F 76% 30.04 in 6.2 mi ENE 2.3 mph - N/A   Unknown
1:00 AM 47 °F - 39 °F 65% 30.07 in 9 mi Calm Calm - -   Clear
1:00 AM 48.2 °F - 39.2 °F 71% 30.06 in 6.2 mi Calm Calm - N/A   Unknown
1:30 AM 46.4 °F - 39.2 °F 76% 30.04 in 6.2 mi NNE 1.2 mph - N/A   Unknown
2:00 AM 46 °F - 38 °F 67% 30.08 in 7 mi ENE 2.3 mph - -   Clear
2:00 AM 46.4 °F - 39.2 °F 76% 30.06 in 6.2 mi ENE 2.3 mph - N/A   Unknown
2:30 AM 46.4 °F - 37.4 °F 71% 30.06 in 6.2 mi ENE 1.2 mph - N/A   Unknown
3:00 AM 46 °F - 39 °F 67% 30.07 in 7 mi NE 3.5 mph - -   Clear
3:00 AM 46.4 °F 45.2 °F 39.2 °F 76% 30.04 in 6.2 mi NE 3.5 mph - N/A   Unknown
3:30 AM 46.4 °F 45.2 °F 39.2 °F 76% 30.04 in 6.2 mi ENE 3.5 mph - N/A   Unknown
4:00 AM 45 °F - 38 °F 69% 30.07 in 7 mi ENE 4.6 mph - -   Clear
4:00 AM 44.6 °F 42.2 °F 37.4 °F 76% 30.04 in 6.2 mi ENE 4.6 mph - N/A   Unknown
4:30 AM 46.4 °F 45.2 °F 37.4 °F 71% 30.04 in 6.2 mi Variable 3.5 mph - N/A   Unknown
5:00 AM 46 °F - 39 °F 69% 30.07 in 8 mi ENE 4.6 mph - -   Clear
5:00 AM 46.4 °F 44.3 °F 39.2 °F 76% 30.04 in 6.2 mi ENE 4.6 mph - N/A   Unknown
5:30 AM 46.4 °F 42.9 °F 39.2 °F 76% 30.04 in 6.2 mi ENE 6.9 mph - N/A   Unknown
6:00 AM 46 °F - 38 °F 64% 30.06 in 9 mi ENE 5.8 mph - -   Clear
6:00 AM 46.4 °F 43.5 °F 37.4 °F 71% 30.04 in 6.2 mi ENE 5.8 mph - N/A   Unknown
6:30 AM 44.6 °F 42.2 °F 37.4 °F 76% 30.04 in 6.2 mi ENE 4.6 mph - N/A   Unknown
7:00 AM 44 °F - 38 °F 71% 30.07 in 8 mi NE 4.6 mph - -   Clear
7:00 AM 44.6 °F 42.2 °F 37.4 °F 76% 30.04 in 6.2 mi NE 4.6 mph - N/A   Unknown
7:30 AM 46.4 °F 44.3 °F 39.2 °F 76% 30.04 in 6.2 mi NE 4.6 mph - N/A   Unknown
8:00 AM 49 °F - 40 °F 61% 30.07 in 9 mi NE 5.8 mph - -   Clear
8:00 AM 50.0 °F - 39.2 °F 66% 30.04 in 6.2 mi NE 5.8 mph - N/A   Unknown
8:30 AM 50.0 °F - 39.2 °F 66% 30.04 in 6.2 mi NE 5.8 mph - N/A   Unknown
9:00 AM 51 °F - 40 °F 55% 30.07 in 11 mi NE 5.8 mph - -   Clear
9:00 AM 51.8 °F - 39.2 °F 62% 30.04 in 6.2 mi NE 5.8 mph - N/A   Unknown
9:30 AM 53.6 °F - 39.2 °F 58% 30.04 in 6.2 mi NE 6.9 mph - N/A   Unknown
10:00 AM 55 °F - 38 °F 40% 30.07 in 9 mi NE 4.6 mph - -   Clear
10:00 AM 55.4 °F - 37.4 °F 51% 30.06 in 6.2 mi NE 4.6 mph - N/A   Unknown
10:30 AM 57.2 °F - 39.2 °F 51% 30.06 in 6.2 mi Variable 2.3 mph - N/A   Unknown
11:00 AM 61 °F - 40 °F 33% 30.06 in 10 mi SE 3.5 mph - -   Clear
11:00 AM 60.8 °F - 39.2 °F 45% 30.04 in 6.2 mi SE 3.5 mph - N/A   Unknown
11:30 AM 62.6 °F - 39.2 °F 42% 30.04 in 6.2 mi SSE 6.9 mph - N/A   Unknown
12:00 PM 64 °F - 40 °F 29% 30.04 in 11 mi SSE 5.8 mph - -   Clear
12:00 PM 64.4 °F - 39.2 °F 40% 30.04 in 6.2 mi SSE 5.8 mph - N/A   Unknown
12:30 PM 66.2 °F - 39.2 °F 37% 30.01 in 6.2 mi South 4.6 mph - N/A   Unknown
1:00 PM 66 °F - 39 °F 25% 30.01 in 10 mi SE 5.8 mph - -   Clear
1:00 PM 66.2 °F - 39.2 °F 37% 30.01 in 6.2 mi SE 5.8 mph - N/A   Unknown
1:30 PM 66.2 °F - 41.0 °F 40% 29.98 in 6.2 mi South 6.9 mph - N/A   Unknown
2:00 PM 66 °F - 40 °F 27% 29.98 in 11 mi South 6.9 mph - -   Clear
2:00 PM 66.2 °F - 39.2 °F 37% 29.98 in 6.2 mi South 6.9 mph - N/A   Unknown
2:30 PM 68.0 °F - 44.6 °F 43% 29.98 in 6.2 mi SSW 9.2 mph - N/A   Unknown
3:00 PM 66 °F - 44 °F 34% 29.97 in 11 mi SW 8.1 mph - -   Clear
3:00 PM 66.2 °F - 44.6 °F 46% 29.98 in 6.2 mi SW 8.1 mph - N/A   Unknown
3:30 PM 66.2 °F - 44.6 °F 46% 29.98 in 6.2 mi SW 8.1 mph - N/A   Unknown
4:00 PM 66 °F - 45 °F 35% 29.96 in 10 mi SW 5.8 mph - -   Clear
4:00 PM 66.2 °F - 44.6 °F 46% 29.95 in 6.2 mi SW 5.8 mph - N/A   Unknown
4:30 PM 64.4 °F - 44.6 °F 49% 29.95 in 6.2 mi SSW 6.9 mph - N/A   Unknown
5:00 PM 63 °F - 45 °F 41% 29.96 in 8 mi SSW 4.6 mph - -   Clear
5:00 PM 62.6 °F - 44.6 °F 52% 29.95 in 6.2 mi SSW 4.6 mph - N/A   Unknown
5:30 PM 62.6 °F - 44.6 °F 52% 29.98 in 6.2 mi SSW 3.5 mph - N/A   Unknown
6:00 PM 60.8 °F - 44.6 °F 55% 29.95 in 6.2 mi Variable 3.5 mph - N/A   Unknown
6:30 PM 60.8 °F - 46.4 °F 59% 29.98 in 6.2 mi Variable 3.5 mph - N/A   Unknown
7:00 PM 59 °F - 44 °F 48% 29.98 in 7 mi WSW 1.2 mph - -   Clear
7:00 PM 59.0 °F - 44.6 °F 59% 29.98 in 6.2 mi WSW 1.2 mph - N/A   Unknown
7:30 PM 59.0 °F - 42.8 °F 55% 29.98 in 6.2 mi WSW 2.3 mph - N/A   Unknown
8:00 PM 58 °F - 43 °F 47% 30.00 in 8 mi SW 2.3 mph - -   Clear
8:00 PM 57.2 °F - 42.8 °F 59% 29.98 in 6.2 mi Variable 2.3 mph - N/A   Unknown
8:30 PM 57.2 °F - 42.8 °F 59% 30.01 in 6.2 mi Variable 2.3 mph - N/A   Unknown
9:00 PM 56 °F - 43 °F 51% 30.01 in 7 mi WNW 2.3 mph - -   Clear
9:00 PM 57.2 °F - 42.8 °F 59% 30.01 in 6.2 mi WNW 2.3 mph - N/A   Unknown
9:30 PM 55.4 °F - 44.6 °F 67% 30.01 in 6.2 mi WNW 3.5 mph - N/A   Unknown
10:00 PM 55 °F - 43 °F 54% 30.02 in 7 mi WNW 3.5 mph - -   Clear
10:00 PM 55.4 °F - 42.8 °F 63% 30.01 in 6.2 mi WNW 3.5 mph - N/A   Unknown
10:30 PM 55.4 °F - 42.8 °F 63% 30.01 in 6.2 mi WNW 2.3 mph - N/A   Unknown
11:00 PM 54 °F - 43 °F 55% 30.03 in 7 mi WNW 3.5 mph - -   Clear
11:00 PM 53.6 °F - 42.8 °F 67% 30.01 in 6.2 mi WNW 3.5 mph - N/A   Unknown
11:30 PM 53.6 °F - 42.8 °F 67% 30.01 in 6.2 mi NW 2.3 mph - N/A   Unknown